RH
57 65 58 71 50 50 46 48 54 44 42 38 39 31 17 25 59 70 82 100 96 45 38 74 91 79 64 55 38 38 38 44 40 33 31 28 26 23 20 19 20 20 18 16 13
64 71 75 64 72 78 57 59 62 56 50 48 39 39 33 20 16 44 51 75 100 62 37 60 76 78 82 63 53 35 54 44 42 33 34 31 26 25 23 20 20 20 20 19 17
100 100 92 95 72 75 75 69 59 59 64 65 56 44 37 32 21 18 31 47 66 92 53 48 64 78 72 82 65 54 71 50 44 42 32 34 29 27 31 26 21 22 23 21 20
87 91 86 95 90 85 89 82 72 63 62 69 58 59 55 36 34 31 18 30 44 59 70 50 48 57 84 82 83 67 87 48 40 53 40 33 38 29 34 34 34 26 25 22 21
100 100 100 96 98 96 87 96 85 73 68 70 64 56 55 49 85 24 24 12 28 48 47 61 38 42 66 85 81 76 91 52 41 48 47 38 31 38 32 33 38 38 31 25 24
100 100 100 100 98 99 100 93 96 88 65 74 78 62 54 80 46 28 21 19 12 37 45 51 44 38 59 80 73 92 90 77 42 51 44 49 40 29 37 38 35 40 36 30 28
98 100 100 100 94 96 96 100 95 86 75 78 81 82 62 65 36 26 16 22 16 13 34 46 52 29 39 67 78 90 91 77 47 56 53 53 44 43 33 38 41 36 43 41 29
95 100 100 96 81 89 88 93 92 82 55 69 80 78 76 49 36 24 10 14 18 12 14 32 59 38 29 52 72 67 99 70 53 64 61 51 54 71 43 39 35 43 39 48 51
92 96 95 100 88 91 87 83 72 73 42 43 57 60 61 54 36 23 10 10 18 14 11 20 36 51 29 38 52 59 84 78 56 87 69 50 83 89 59 49 40 38 44 42 42
88 96 99 96 100 100 85 69 62 61 33 22 31 38 40 41 39 26 12 11 17 19 12 12 25 50 34 32 30 54 75 85 61 58 97 62 83 91 72 63 53 45 37 38 39
100 100 100 100 99 92 79 64 43 39 24 18 18 23 30 27 37 33 11 11 14 19 16 11 15 37 48 32 74 57 71 100 72 67 100 100 84 100 95 74 60 53 47 46 46
96 100 100 100 100 82 76 53 26 35 21 21 15 17 22 24 31 33 9 7 9 15 22 13 10 21 75 42 48 47 64 100 96 66 62 100 86 100 72 70 66 51 58 67 68
100 100 100 100 100 90 59 51 26 23 15 20 14 15 16 14 22 26 13 8 8 10 19 18 11 20 54 60 46 47 45 90 100 89 60 98 100 100 82 65 72 68 70 72 79
100 100 100 100 100 79 50 36 23 19 17 12 15 16 13 13 14 20 12 6 7 9 17 22 16 12 28 47 50 60 67 88 100 100 76 58 89 100 100 68 68 75 85 86 90
100 100 100 100 94 46 39 32 25 17 14 12 12 14 15 12 12 13 14 7 6 9 12 18 20 12 11 27 50 68 91 100 100 100 100 75 53 85 100 64 69 82 80 97 100
100 100 100 100 65 40 33 30 16 15 14 12 12 12 13 11 9 11 10 8 6 6 10 16 30 18 12 25 36 68 83 81 80 98 100 95 64 83 100 82 78 100 96 97 98
100 100 100 100 44 36 25 26 18 14 10 12 13 11 10 10 8 8 7 7 6 6 9 14 20 20 14 15 28 60 66 67 59 79 87 97 67 72 97 100 96 100 100 100 100
100 100 100 100 50 39 23 20 17 12 12 12 11 10 8 9 7 7 6 6 6 6 10 9 19 22 18 13 19 46 57 52 48 48 64 75 63 42 100 92 100 92 100 100 100
100 100 100 79 61 38 22 16 15 11 11 12 11 8 7 6 6 5 5 6 7 6 8 9 15 24 25 21 22 42 68 51 50 44 47 39 54 46 79 100 99 100 100 95 100
100 100 85 63 61 25 16 14 14 10 9 8 7 8 5 5 6 5 5 6 7 7 9 10 14 18 34 25 22 44 82 71 58 49 32 26 33 36 48 100 100 100 100 100 100
100 96 80 54 36 20 15 13 13 8 7 6 5 5 4 4 4 4 6 6 8 8 9 11 16 25 32 22 20 17 62 71 62 55 45 36 28 41 77 100 100 100 100 100 98
82 68 59 39 21 14 12 12 9 5 4 4 4 4 4 4 4 4 6 6 8 7 9 14 16 21 24 29 27 27 76 85 72 54 44 46 47 56 73 100 100 100 100 100 99
65 50 29 19 14 11 10 9 5 4 4 3 3 3 3 3 3 4 6 6 7 8 8 14 16 16 25 29 28 26 25 39 64 68 58 61 56 48 75 94 100 100 100 100 100
57 42 21 13 12 8 8 6 3 3 3 3 3 3 3 3 3 4 6 7 7 7 8 12 13 16 25 33 30 25 22 18 31 48 53 46 68 60 95 99 100 100 100 100 100
65 36 16 11 9 8 6 3 2 3 3 2 3 2 3 2 4 4 6 8 7 8 8 9 12 12 14 26 27 30 23 17 13 22 30 62 72 66 75 100 100 100 100 99 98
60 40 14 10 9 7 4 2 2 2 3 2 3 2 2 2 3 4 6 8 7 7 7 7 8 10 12 16 28 30 29 28 18 17 23 54 66 72 69 83 100 100 100 100 100
44 26 13 9 8 4 3 3 2 2 3 3 3 3 2 2 4 4 6 7 7 7 7 7 8 9 11 10 16 25 34 32 27 20 18 20 59 86 77 75 99 100 100 100 100
Wind_Speed
61 62 61 61 59 62 58 54 53 52 57 62 61 83 97 108 113 106 97 100 92 85 78 74 74 70 66 62 61 56 50 50 46 41 36 34 30 27 25 24 25 25 25 24 24
65 65 67 66 63 63 62 57 55 55 56 59 65 62 77 95 104 111 112 110 103 92 84 83 81 77 69 66 63 60 56 56 51 46 43 39 35 31 28 27 26 24 25 24 23
71 74 74 74 70 66 64 63 61 56 55 57 60 66 66 80 93 106 121 118 113 104 94 90 90 83 76 70 65 65 61 61 55 52 49 44 41 36 31 30 27 26 29 28 25
76 78 77 75 70 71 70 65 64 62 55 56 60 60 67 66 75 100 115 125 119 114 105 99 92 88 84 76 72 68 71 65 61 57 54 50 45 43 38 34 30 28 30 29 27
81 82 85 82 77 77 76 70 65 61 59 55 58 63 65 69 69 92 112 122 125 121 115 102 95 92 90 86 81 73 75 73 66 62 59 54 52 47 45 42 37 35 31 32 29
84 88 86 84 86 82 76 74 71 66 64 56 55 61 65 56 76 82 98 116 123 127 121 111 101 97 98 94 87 78 81 79 72 66 62 58 56 52 49 47 44 40 38 36 35
88 89 87 91 90 82 78 75 73 70 63 58 55 56 58 60 72 72 88 105 120 128 129 119 111 104 100 99 94 88 85 83 74 70 65 64 58 57 55 52 49 46 41 39 39
91 98 96 93 88 85 79 76 76 72 62 58 54 55 46 67 69 65 84 96 113 121 131 127 121 112 105 104 101 95 90 85 77 74 70 67 62 66 60 57 53 51 48 45 43
95 101 100 98 91 86 83 77 75 70 62 58 57 55 51 62 69 64 80 91 110 120 127 132 128 119 111 109 107 98 85 83 84 78 76 70 69 70 66 63 58 55 52 51 48
99 105 107 102 92 89 87 83 75 67 62 56 55 59 62 64 64 65 76 87 103 122 127 135 133 125 118 115 100 89 82 84 84 81 79 76 73 77 72 68 65 61 57 53 52
104 104 109 114 105 96 87 83 77 61 59 57 57 56 66 61 56 68 73 80 98 114 124 130 137 132 121 108 101 98 95 92 92 92 87 84 82 86 81 74 69 64 61 59 58
107 114 117 117 115 106 95 86 75 58 50 71 59 61 58 59 53 69 70 78 95 104 119 131 135 132 124 118 112 105 102 97 97 95 93 90 87 90 84 74 71 68 64 63 63
115 120 119 121 119 110 97 87 78 64 45 63 56 59 64 53 52 73 63 73 87 101 114 128 128 137 131 123 116 110 105 100 101 101 99 96 92 90 85 78 74 71 68 67 67
120 125 122 123 120 109 99 89 80 68 52 51 53 52 57 54 51 70 63 73 81 95 108 124 130 134 136 130 123 117 109 108 105 107 103 101 96 94 90 82 76 73 71 70 70
125 125 121 120 116 109 102 91 83 70 56 47 48 51 50 54 54 63 68 72 73 86 108 109 124 127 133 133 130 117 118 114 113 114 112 106 100 92 93 83 78 76 74 74 76
124 126 128 124 116 106 104 94 84 74 61 55 52 50 44 50 55 63 66 69 76 86 97 106 120 128 127 137 132 125 125 121 117 119 121 110 102 96 91 83 83 81 79 79 79
127 130 127 123 114 109 105 94 85 79 66 59 57 53 44 48 52 58 63 67 72 77 88 94 114 123 130 140 142 137 132 129 127 131 121 107 111 90 94 89 86 85 84 84 82
128 131 127 122 117 111 105 95 87 79 69 63 58 54 43 44 52 54 62 64 72 74 83 95 106 122 127 134 144 141 140 139 133 133 117 117 115 91 94 94 89 90 88 86 83
134 136 128 123 121 112 102 94 90 81 70 63 60 53 45 37 51 50 59 62 71 73 84 94 104 117 129 135 143 141 144 133 131 132 125 125 113 101 98 96 94 91 94 94 93
134 135 128 126 118 109 99 93 90 83 71 63 56 52 42 36 46 45 56 61 68 70 80 89 98 109 125 134 141 147 132 139 139 136 131 122 106 95 92 97 97 96 93 98 99
135 133 125 123 118 106 98 93 86 80 67 61 54 44 39 36 43 43 53 58 66 69 76 83 90 101 119 131 136 142 147 145 143 139 129 120 105 96 97 98 101 99 100 101 101
135 129 123 121 116 106 97 91 85 78 64 54 50 42 36 33 40 43 52 58 64 67 72 80 93 98 110 126 132 139 144 144 142 140 132 123 106 103 100 100 100 105 104 105 101
135 134 125 118 115 106 95 88 80 72 60 53 46 41 34 32 40 45 51 60 64 67 71 78 90 93 102 121 131 138 144 146 145 143 136 128 111 107 105 102 104 106 108 107 104
141 135 128 120 116 104 95 88 77 66 57 51 44 39 34 32 40 44 51 60 64 69 72 80 83 89 97 110 128 135 140 144 146 147 139 134 116 112 110 107 109 109 110 109 104
142 140 131 122 112 102 91 80 72 59 54 45 43 36 34 31 38 44 50 60 65 69 74 81 85 88 94 104 114 130 133 135 139 142 142 133 118 113 112 113 113 112 109 103 105
141 139 127 117 112 104 90 76 68 55 51 44 40 34 34 31 37 46 52 61 65 70 73 76 81 82 89 95 105 119 128 132 132 138 140 137 125 120 118 116 113 112 108 104 102
138 133 123 112 106 96 85 75 65 51 49 41 38 37 31 30 39 47 51 58 63 69 73 74 78 80 85 87 98 107 116 126 129 131 135 132 125 124 121 115 114 115 112 108 105
Wind_Direction
348 342 341 335 330 326 321 315 303 289 282 270 258 249 245 241 241 241 239 237 236 235 232 229 230 229 228 227 227 225 223 227 230 230 228 224 220 221 220 212 214 220 228 233 233
346 346 341 340 333 327 320 314 309 298 289 279 270 260 245 243 240 238 237 237 235 231 231 228 228 228 227 227 226 227 224 225 226 226 227 225 218 219 220 219 217 222 230 234 233
343 342 338 335 333 332 327 316 308 302 292 283 276 266 260 244 238 234 236 236 236 234 228 229 227 225 225 226 227 224 224 224 222 225 224 224 221 219 217 218 216 218 225 226 225
344 340 338 333 331 330 326 322 315 304 293 286 276 269 263 256 243 233 233 233 234 234 231 226 226 223 225 223 227 226 226 224 220 223 224 223 223 222 217 222 216 216 219 220 214
347 346 343 338 333 329 326 320 317 309 297 288 275 267 262 256 254 235 232 233 230 231 232 225 227 223 222 225 223 226 229 225 221 221 223 222 225 225 222 223 218 215 218 214 211
346 343 342 338 335 329 325 320 317 310 300 288 278 269 261 258 254 246 231 231 230 228 229 228 225 224 221 222 221 224 229 226 223 221 222 225 224 227 227 225 223 218 217 218 212
346 342 339 338 333 332 327 323 314 311 302 290 282 271 264 257 258 251 235 228 230 226 226 225 222 224 221 220 220 221 228 226 222 221 221 224 226 227 224 229 226 220 220 222 224
345 344 341 335 332 330 327 326 318 315 305 292 284 275 265 262 259 252 238 228 227 226 225 224 222 221 221 220 220 220 224 225 221 221 220 222 226 229 226 225 228 225 222 219 223
345 343 339 337 333 331 329 323 319 317 307 291 282 273 264 258 258 251 239 229 223 224 222 223 222 220 219 221 220 218 220 223 222 220 220 221 223 228 227 227 225 226 227 227 226
340 342 340 335 332 332 329 324 320 318 311 298 284 274 268 257 254 251 240 229 224 222 220 221 220 219 218 220 219 219 219 222 223 222 221 220 220 226 228 227 227 226 227 230 231
339 340 340 340 336 331 331 326 324 319 312 301 288 277 270 263 251 248 241 229 225 223 222 220 220 218 218 219 221 218 216 221 221 221 219 218 216 225 223 224 228 229 230 232 234
342 342 341 339 337 334 328 328 326 318 317 305 293 281 269 267 250 244 241 231 227 223 222 221 219 217 213 215 217 217 217 217 221 222 220 220 218 224 224 225 229 230 231 234 235
343 341 340 338 334 332 330 328 326 320 318 301 298 290 280 272 253 250 243 235 228 226 221 223 219 216 213 214 215 217 218 218 220 225 223 219 219 223 225 224 226 231 232 234 237
343 341 338 336 336 331 328 328 325 323 320 305 296 285 279 273 257 250 245 238 228 224 221 221 220 216 214 213 212 216 218 220 220 224 225 222 219 221 224 224 225 228 232 235 238
340 338 337 335 332 333 328 328 325 323 320 309 296 284 277 272 260 253 248 240 231 224 224 220 222 218 216 213 212 213 217 219 220 221 223 224 221 221 227 225 226 228 230 232 236
341 338 336 334 330 330 332 329 327 321 319 315 304 290 281 268 261 256 248 240 234 224 225 216 217 218 214 213 213 214 218 220 221 223 223 222 221 219 223 225 226 228 229 232 235
339 338 337 333 329 331 331 329 326 321 319 312 305 292 282 268 257 252 248 240 234 224 225 220 216 218 214 212 212 212 216 218 220 223 222 223 225 216 221 222 224 227 229 232 235
339 337 334 333 332 333 331 328 324 320 318 312 304 295 281 268 256 246 245 237 234 223 220 222 215 216 215 213 213 213 216 218 219 224 222 222 225 218 222 224 224 228 230 233 235
337 336 333 332 334 333 329 326 322 318 317 313 303 295 286 262 256 245 241 236 233 223 220 221 216 213 212 211 212 212 216 219 221 223 222 223 222 219 219 224 224 225 230 233 235
336 334 332 332 332 333 329 324 320 317 316 309 299 293 287 267 253 243 237 234 231 224 218 220 216 214 210 211 211 212 214 218 221 222 224 224 221 218 219 225 227 226 228 232 235
335 334 334 332 332 331 327 324 319 316 316 307 299 291 283 267 250 239 233 231 229 224 219 220 217 215 212 213 212 213 212 216 219 222 224 224 221 219 220 224 229 230 231 231 235
336 334 333 332 331 329 327 323 319 317 314 308 297 291 280 261 249 237 229 226 226 223 219 217 219 216 213 212 212 213 213 216 220 223 222 221 220 219 219 224 228 233 234 236 237
337 336 331 332 331 328 326 323 321 320 316 306 297 290 276 256 245 234 226 225 223 221 218 217 221 218 216 214 213 214 215 216 217 220 220 221 218 220 220 221 227 231 236 238 239
337 334 332 333 329 327 327 324 322 319 312 303 295 286 273 252 241 231 223 224 222 220 218 218 219 219 216 215 215 216 216 217 218 221 220 221 213 217 221 223 227 230 232 236 239
337 335 332 331 329 327 327 322 320 318 309 303 294 283 269 250 235 228 220 222 222 220 220 218 217 217 217 215 215 218 219 220 220 221 222 220 215 217 219 222 228 231 234 234 239
335 334 331 330 327 327 325 322 318 316 308 302 289 279 267 248 232 226 219 218 221 222 222 222 220 217 219 216 216 218 219 220 222 222 223 220 215 215 218 221 225 231 233 235 237
335 332 331 330 326 325 323 320 318 316 307 297 285 276 260 245 231 225 220 217 220 222 223 222 221 219 219 216 218 218 220 221 223 223 224 224 218 216 218 220 225 228 233 236 238